TimeEDT,TemperatureF,Dew PointF,Humidity,Sea Level PressureIn,VisibilityMPH,Wind Direction,Wind SpeedMPH,Gust SpeedMPH,PrecipitationIn,Events,Conditions,WindDirDegrees,DateUTC
12:54 AM,50.0,48.0,93,30.09,8.0,Calm,Calm,-,N/A,,Clear,0,2013-09-24 04:54:00
1:54 AM,48.9,48.0,97,30.09,10.0,Calm,Calm,-,N/A,,Clear,0,2013-09-24 05:54:00
2:54 AM,50.0,48.9,96,30.08,10.0,Calm,Calm,-,N/A,,Clear,0,2013-09-24 06:54:00
3:54 AM,50.0,48.0,93,30.08,10.0,West,3.5,-,N/A,,Clear,270,2013-09-24 07:54:00
4:54 AM,48.0,46.9,96,30.08,10.0,Calm,Calm,-,N/A,,Clear,0,2013-09-24 08:54:00
5:54 AM,48.0,46.9,96,30.09,10.0,West,3.5,-,N/A,,Clear,280,2013-09-24 09:54:00
6:54 AM,46.9,46.9,100,30.09,10.0,West,5.8,-,N/A,,Clear,280,2013-09-24 10:54:00
7:54 AM,53.1,50.0,89,30.10,10.0,Calm,Calm,-,N/A,,Clear,0,2013-09-24 11:54:00
8:54 AM,57.9,52.0,81,30.11,10.0,WNW,3.5,-,N/A,,Clear,290,2013-09-24 12:54:00
9:54 AM,64.0,51.1,63,30.10,10.0,North,4.6,-,N/A,,Clear,350,2013-09-24 13:54:00
10:54 AM,66.9,48.9,52,30.10,10.0,North,5.8,-,N/A,,Clear,10,2013-09-24 14:54:00
11:54 AM,69.1,50.0,51,30.08,10.0,Variable,3.5,-,N/A,,Clear,0,2013-09-24 15:54:00
12:54 PM,71.1,51.1,49,30.06,10.0,North,8.1,-,N/A,,Clear,360,2013-09-24 16:54:00
1:54 PM,73.0,51.1,46,30.02,10.0,North,9.2,-,N/A,,Clear,350,2013-09-24 17:54:00
2:54 PM,73.0,51.1,46,30.00,10.0,Variable,3.5,-,N/A,,Clear,0,2013-09-24 18:54:00
3:54 PM,73.9,51.1,45,29.98,10.0,North,5.8,-,N/A,,Clear,10,2013-09-24 19:54:00
4:54 PM,71.1,54.0,55,29.98,10.0,SE,10.4,-,N/A,,Clear,140,2013-09-24 20:54:00
5:54 PM,69.1,53.1,57,29.98,10.0,SE,5.8,-,N/A,,Clear,140,2013-09-24 21:54:00
6:54 PM,64.9,53.1,65,29.98,10.0,SE,5.8,-,N/A,,Clear,130,2013-09-24 22:54:00
7:54 PM,62.1,54.0,75,29.98,10.0,ESE,4.6,-,N/A,,Clear,120,2013-09-24 23:54:00
8:54 PM,57.0,54.0,89,29.99,10.0,Calm,Calm,-,N/A,,Clear,0,2013-09-25 00:54:00
9:54 PM,55.9,54.0,93,29.99,10.0,Calm,Calm,-,N/A,,Clear,0,2013-09-25 01:54:00
10:54 PM,55.0,53.1,93,29.98,10.0,Calm,Calm,-,N/A,,Clear,0,2013-09-25 02:54:00
11:54 PM,52.0,51.1,97,29.98,10.0,South,3.5,-,N/A,,Clear,190,2013-09-25 03:54:00